Location: Emblem
(62.4273°N, 6.4710°E)
Time: 21:10:34
(UTC+02:00)

Vanguard 2 - Pass Details

Date: 08 February 2023
Orbit: 553 x 2927 km, 32.9° (Epoch: 27 March)

Event Time Altitude Azimuth Distance (km) Brightness Sun altitude
Rises 23:17:11 0° 232° (SW) 5,505 11.8 -39.8°
Enters shadow 23:20:15 - 222° (SW) 5,095 11.5 -39.9°
Reaches altitude 10° 23:22:10 10° 215° (SW) 4,900 - -40.0°
Maximum altitude 23:30:43 18° 179° (S) 4,725 - -40.5°
Drops below altitude 10° 23:40:31 10° 145° (SE) 5,721 - -40.9°
Sets 23:47:10 0° 130° (SE) 6,773 - -41.2°
